Temp
13 13 14 14 14 15 14 15 15 16 16 16 17 17 17 17 17 17 17 17 17 16 16 16 16 16 16 16 16 17 17 17 17 17 17 16 16 16 16 16 16 16 17
9 12 14 14 14 14 14 15 15 16 16 16 16 16 16 16 16 16 17 17 17 16 16 16 16 16 16 16 16 17 16 16 16 16 17 17 16 16 16 16 14 17 17
10 12 14 14 14 14 14 14 14 15 15 16 16 16 16 16 16 16 16 16 16 17 16 16 15 16 16 16 16 16 16 16 16 16 16 15 16 16 16 17 17 17 17
10 12 13 14 14 14 15 14 14 14 14 15 15 16 16 16 16 16 16 16 16 16 16 16 15 15 15 15 16 16 16 16 16 16 16 15 15 16 16 17 17 17 17
9 11 13 14 14 14 14 14 15 15 15 14 15 15 15 15 16 16 16 16 16 16 16 16 16 15 15 15 16 15 16 16 16 16 16 16 15 16 16 16 16 17 17
9 10 12 13 14 14 14 14 14 14 14 14 14 14 15 15 14 15 16 16 16 15 15 15 15 15 15 15 15 15 16 15 15 16 15 15 16 16 16 16 16 17 16
9 10 11 12 13 13 13 14 13 13 14 14 14 14 14 14 15 15 15 15 15 15 15 15 15 15 15 15 15 15 16 16 15 14 15 15 15 15 16 16 16 16 16
9 10 11 11 13 13 13 13 13 13 14 14 14 14 14 14 14 15 15 15 15 15 15 15 15 15 15 15 15 15 15 16 15 15 15 15 14 15 16 16 16 16 16
9 10 11 11 12 12 13 13 13 13 14 14 14 14 14 14 14 14 14 15 15 15 15 15 15 15 15 15 15 15 15 15 15 14 15 14 14 15 15 16 15 16 16
8 9 10 11 11 12 12 12 12 12 13 13 13 13 14 14 13 14 14 14 15 15 15 15 14 15 15 15 15 14 15 15 15 15 14 14 14 15 15 15 15 15 15
7 8 9 10 10 11 11 12 12 13 12 12 13 13 13 14 13 13 14 13 14 14 14 14 14 14 14 15 15 15 14 15 14 14 14 14 14 15 15 15 15 15 15
6 6 7 8 9 10 10 11 12 12 12 13 12 12 13 13 13 13 13 13 14 14 14 14 14 14 14 14 14 14 14 14 14 14 14 14 15 15 15 15 15 15 15
2 5 6 6 7 8 9 10 10 11 11 12 12 12 12 12 13 13 12 12 13 13 14 13 13 14 13 13 13 13 13 13 14 14 14 15 15 15 15 15 15 14 15
2 3 4 5 5 6 7 8 8 9 10 10 10 11 12 12 12 12 12 12 12 13 13 13 12 12 13 13 13 13 13 13 14 13 14 14 15 15 15 15 14 14 14
0 1 3 3 4 5 5 6 7 7 8 9 9 9 10 11 11 11 12 12 12 12 13 12 13 12 12 13 13 13 13 12 13 13 14 15 14 14 14 14 14 14 14
-0 1 1 2 2 3 3 4 5 6 7 7 8 8 9 8 10 11 11 12 11 11 12 13 12 12 13 12 12 13 12 12 12 12 14 14 14 14 14 14 14 14 14
-2 -2 -1 0 1 1 2 2 3 4 4 5 6 7 6 8 8 10 10 11 11 11 11 11 12 12 12 12 12 12 12 12 11 12 14 14 14 14 14 14 14 14 14
-3 -2 -1 -1 -1 0 1 1 1 2 3 3 3 4 6 6 6 8 9 10 10 11 10 10 10 11 11 10 11 11 12 11 11 12 13 13 14 13 14 14 13 14 15
-5 -3 -3 -2 -1 -1 -0 0 1 1 1 2 2 2 3 4 5 6 8 9 10 9 10 10 10 10 10 10 10 11 11 11 11 11 12 13 12 12 13 14 14 14 13
-6 -4 -4 -3 -2 -2 -1 -1 -1 -0 0 0 1 1 1 2 3 4 5 7 9 10 10 10 10 10 10 9 10 10 9 10 11 11 12 13 12 12 12 13 13 14 14
-4 -4 -4 -4 -4 -3 -2 -2 -1 -1 -1 -1 -1 -0 0 1 1 2 3 5 7 7 9 10 9 9 9 9 9 9 9 10 10 10 11 11 12 11 11 12 12 13 12
-5 -5 -5 -5 -5 -5 -5 -5 -5 -4 -4 -4 -3 -2 -1 -1 -0 1 1 3 5 6 8 8 9 9 9 8 8 9 9 9 9 10 11 11 11 11 12 11 12 12 11
-7 -7 -7 -7 -6 -7 -7 -6 -5 -5 -5 -4 -4 -3 -3 -2 -2 -1 -0 0 2 4 5 7 8 9 9 9 9 9 8 9 9 9 10 11 11 11 11 12 12 11 11
-8 -8 -8 -8 -7 -7 -8 -7 -7 -7 -6 -6 -6 -5 -4 -4 -3 -3 -2 -1 -0 2 3 5 6 7 9 9 9 9 9 9 8 8 9 10 11 11 12 12 12 11 11
-9 -9 -8 -8 -8 -8 -8 -9 -9 -8 -8 -7 -7 -6 -5 -5 -5 -4 -3 -2 -2 -1 1 3 6 6 7 8 9 10 8 8 8 10 9 9 10 10 11 11 11 11 10
-9 -9 -9 -9 -9 -9 -9 -9 -10 -9 -9 -8 -8 -8 -7 -6 -6 -5 -5 -3 -3 -2 -0 2 3 5 7 7 9 9 9 9 8 9 9 8 9 8 9 9 10 11 10
Height
1537 1535 1533 1534 1536 1537 1538 1538 1538 1538 1538 1538 1538 1538 1538 1537 1538 1537 1537 1537 1537 1537 1537 1537 1537 1537 1537 1538 1538 1538 1539 1540 1540 1540 1540 1540 1541 1541 1541 1542 1543 1542 1543
1541 1538 1536 1535 1537 1537 1540 1539 1539 1540 1540 1540 1539 1539 1539 1539 1539 1539 1539 1538 1538 1538 1538 1538 1538 1538 1539 1539 1539 1539 1539 1540 1541 1541 1542 1542 1543 1543 1543 1544 1545 1544 1544
1541 1538 1536 1536 1538 1538 1538 1538 1541 1540 1540 1540 1540 1540 1540 1540 1540 1540 1540 1539 1539 1538 1539 1539 1539 1540 1539 1539 1540 1540 1540 1541 1542 1543 1543 1544 1545 1545 1545 1545 1546 1546 1546
1542 1539 1537 1537 1538 1539 1538 1538 1538 1539 1540 1541 1541 1541 1541 1541 1541 1541 1541 1541 1540 1540 1540 1541 1540 1541 1541 1542 1541 1540 1541 1542 1543 1543 1545 1547 1548 1546 1546 1546 1547 1547 1548
1543 1540 1539 1537 1538 1539 1539 1539 1538 1538 1539 1540 1542 1542 1542 1541 1541 1541 1541 1542 1542 1541 1541 1541 1541 1541 1542 1542 1542 1542 1541 1542 1544 1544 1546 1547 1550 1547 1547 1547 1548 1549 1550
1545 1541 1540 1539 1538 1539 1540 1540 1539 1539 1538 1539 1539 1541 1542 1542 1542 1541 1541 1541 1541 1541 1540 1540 1541 1541 1541 1542 1542 1542 1542 1543 1544 1545 1547 1547 1549 1548 1549 1548 1548 1550 1551
1545 1543 1541 1539 1540 1539 1540 1540 1540 1539 1539 1539 1539 1540 1540 1542 1542 1540 1541 1540 1540 1540 1540 1540 1540 1540 1541 1541 1542 1542 1542 1543 1544 1546 1548 1547 1548 1548 1549 1548 1549 1551 1552
1546 1544 1542 1540 1539 1540 1540 1540 1539 1539 1539 1539 1539 1539 1539 1540 1541 1541 1540 1540 1539 1539 1539 1539 1539 1539 1540 1541 1540 1542 1541 1542 1543 1544 1546 1547 1546 1547 1548 1548 1550 1551 1552
1547 1545 1543 1540 1540 1540 1540 1539 1539 1538 1538 1538 1538 1538 1538 1538 1539 1540 1539 1539 1538 1538 1538 1538 1538 1538 1538 1539 1539 1540 1540 1541 1542 1544 1545 1546 1545 1545 1547 1549 1550 1552 1554
1547 1545 1543 1541 1540 1539 1539 1539 1538 1538 1537 1537 1536 1536 1537 1537 1538 1538 1538 1538 1537 1537 1536 1536 1536 1536 1537 1537 1537 1539 1539 1539 1541 1542 1543 1543 1544 1544 1546 1548 1550 1552 1553
1547 1544 1542 1540 1539 1539 1538 1538 1538 1538 1537 1536 1535 1535 1535 1534 1535 1536 1536 1536 1536 1535 1535 1535 1535 1535 1535 1536 1536 1537 1537 1537 1539 1540 1541 1541 1543 1543 1545 1547 1548 1550 1551
1545 1544 1542 1540 1538 1537 1536 1536 1536 1535 1535 1534 1534 1533 1533 1534 1533 1534 1534 1534 1534 1533 1533 1533 1533 1534 1534 1534 1534 1535 1535 1536 1537 1538 1539 1540 1541 1542 1543 1546 1548 1549 1550
1547 1546 1543 1541 1539 1537 1536 1534 1533 1533 1532 1532 1532 1531 1531 1531 1531 1531 1532 1532 1531 1531 1531 1531 1531 1531 1532 1533 1533 1533 1534 1535 1535 1535 1537 1537 1539 1540 1542 1545 1547 1549 1550
1547 1546 1544 1541 1539 1537 1535 1534 1532 1531 1530 1529 1529 1528 1528 1528 1528 1529 1528 1529 1528 1529 1529 1529 1529 1531 1530 1530 1531 1532 1532 1532 1532 1533 1533 1536 1537 1538 1540 1542 1544 1546 1546
1548 1546 1544 1542 1539 1537 1536 1534 1531 1529 1528 1526 1526 1525 1524 1523 1524 1524 1524 1526 1526 1525 1526 1525 1526 1527 1527 1528 1527 1528 1529 1530 1530 1531 1531 1533 1535 1536 1536 1539 1541 1542 1544
1548 1546 1543 1541 1539 1537 1535 1533 1531 1528 1525 1525 1524 1521 1520 1520 1519 1519 1519 1521 1523 1522 1521 1521 1522 1523 1523 1524 1524 1525 1525 1526 1527 1528 1529 1530 1532 1533 1534 1537 1537 1538 1538
1551 1547 1544 1541 1539 1536 1534 1532 1529 1527 1524 1521 1520 1519 1517 1515 1513 1515 1514 1516 1518 1519 1518 1517 1518 1519 1520 1520 1520 1519 1521 1521 1523 1524 1525 1526 1528 1530 1531 1533 1534 1533 1533
1552 1549 1547 1543 1540 1537 1533 1531 1528 1526 1523 1521 1518 1516 1513 1510 1510 1509 1509 1511 1512 1512 1511 1513 1513 1515 1515 1515 1514 1515 1516 1517 1518 1519 1522 1522 1524 1526 1528 1530 1532 1527 1518
1552 1548 1545 1542 1539 1536 1533 1530 1527 1524 1522 1519 1516 1512 1509 1507 1506 1505 1504 1505 1505 1506 1507 1508 1508 1508 1508 1509 1509 1510 1511 1512 1513 1515 1518 1519 1520 1522 1524 1527 1529 1530 1527
1552 1549 1545 1542 1538 1534 1531 1527 1526 1523 1520 1516 1514 1510 1507 1504 1501 1499 1498 1497 1497 1499 1499 1500 1503 1502 1503 1504 1504 1505 1506 1507 1508 1509 1512 1514 1516 1518 1519 1522 1524 1526 1529
1552 1548 1544 1541 1537 1533 1529 1524 1521 1517 1516 1514 1510 1507 1504 1501 1497 1494 1493 1492 1491 1490 1492 1495 1497 1496 1497 1499 1500 1500 1501 1501 1503 1504 1506 1509 1511 1514 1515 1518 1521 1522 1523
1551 1548 1544 1541 1537 1533 1529 1525 1521 1517 1513 1511 1508 1504 1500 1497 1494 1490 1487 1485 1485 1482 1482 1487 1489 1490 1492 1493 1496 1496 1495 1497 1497 1499 1501 1503 1505 1509 1510 1513 1515 1517 1520
1548 1545 1542 1539 1535 1532 1529 1524 1520 1516 1512 1507 1504 1500 1496 1492 1490 1486 1483 1480 1478 1474 1476 1478 1479 1483 1484 1487 1488 1491 1491 1491 1491 1494 1496 1498 1500 1502 1503 1506 1509 1513 1516
1546 1543 1540 1538 1533 1529 1526 1522 1518 1513 1507 1503 1500 1496 1492 1489 1486 1483 1479 1476 1473 1469 1469 1469 1472 1472 1477 1478 1482 1481 1485 1486 1486 1488 1491 1493 1494 1498 1500 1502 1502 1508 1512
1542 1540 1537 1534 1531 1528 1524 1521 1516 1512 1507 1501 1497 1492 1489 1485 1482 1478 1474 1470 1468 1463 1461 1460 1462 1463 1469 1468 1472 1474 1478 1481 1483 1484 1484 1488 1491 1493 1495 1497 1493 1501 1504
1539 1537 1535 1532 1529 1526 1523 1519 1514 1509 1503 1498 1493 1488 1484 1480 1476 1473 1469 1464 1461 1457 1453 1453 1454 1454 1453 1460 1462 1465 1469 1472 1474 1478 1482 1483 1487 1489 1490 1493 1490 1495 1499
Wind_Speed
21 13 15 15 7 5 3 5 5 3 4 4 4 4 5 5 6 7 7 7 6 4 2 3 2 3 4 3 3 2 2 1 3 4 4 6 7 10 11 11 10 10 12
24 17 10 8 8 5 6 5 4 5 5 5 5 6 6 7 7 7 8 8 7 5 4 4 3 4 4 4 3 4 3 3 3 3 4 5 7 9 10 10 9 9 10
23 15 12 8 4 4 2 3 7 6 5 6 6 6 6 7 7 8 9 9 9 7 5 4 4 4 5 6 4 4 4 4 4 3 3 3 6 9 9 8 7 8 9
24 18 8 7 2 3 2 3 3 5 8 7 7 8 7 6 7 8 9 9 9 8 6 6 6 4 5 6 6 4 4 6 7 6 4 5 6 10 10 9 9 9 15
25 22 13 7 1 3 3 4 4 4 5 6 9 8 9 8 8 8 8 9 9 9 8 7 7 7 5 6 6 5 5 6 8 7 6 8 8 11 11 11 10 12 16
24 23 15 6 5 3 4 6 6 6 6 7 7 9 10 9 9 9 9 9 10 10 10 10 9 9 8 8 8 8 7 8 7 6 5 10 11 12 14 12 12 16 14
23 22 17 9 5 4 5 8 7 7 8 8 9 8 9 11 10 9 10 9 10 11 11 11 12 11 10 10 9 9 10 11 10 6 9 12 15 14 15 15 15 16 15
22 21 19 14 5 9 5 8 8 9 10 12 11 12 11 11 11 11 11 12 12 12 13 13 12 13 13 11 10 10 10 12 13 10 11 12 11 14 16 17 17 17 15
20 19 19 17 13 9 9 10 9 10 13 12 14 14 15 13 13 14 13 14 13 13 14 14 15 14 14 13 12 11 11 12 12 9 10 12 13 15 18 17 18 17 15
22 21 20 18 15 13 13 14 13 13 12 15 16 16 16 16 16 17 16 16 15 15 14 14 15 15 15 14 13 13 13 12 14 12 13 14 15 16 18 18 19 18 18
25 26 24 23 20 17 14 15 15 18 16 15 15 17 17 16 14 17 16 15 16 16 16 15 15 14 15 15 14 14 13 13 11 11 10 13 17 16 19 19 21 22 21
29 29 29 27 26 24 21 17 16 17 17 18 16 13 15 14 13 14 15 17 18 18 17 17 17 15 16 15 14 15 15 11 14 11 13 14 14 18 19 20 20 22 24
30 29 30 30 29 29 27 24 21 19 17 15 17 17 15 15 16 12 13 16 19 20 17 16 15 16 14 15 15 11 10 14 15 14 14 14 14 16 19 20 21 23 25
30 31 31 31 31 30 30 30 28 25 22 18 18 17 19 20 17 15 12 14 21 19 21 18 15 13 13 17 16 12 13 13 15 12 18 15 15 17 20 20 21 23 29
30 32 33 32 32 32 31 30 31 30 26 24 22 20 19 20 19 24 20 16 18 24 23 22 22 19 16 16 16 19 18 16 15 15 19 16 17 17 20 21 22 23 30
30 32 34 34 33 32 32 31 30 31 30 27 25 24 24 23 18 23 22 23 18 23 23 25 23 24 24 21 20 18 18 17 20 20 21 19 19 19 20 20 22 22 27
26 29 31 32 33 33 32 31 31 30 31 31 29 26 26 25 22 25 21 22 23 25 26 25 25 24 25 23 24 24 23 21 22 24 23 23 22 20 20 21 21 22 29
25 27 27 29 31 32 32 32 30 30 31 31 31 29 28 27 28 25 24 26 25 21 27 26 24 25 25 25 30 29 26 26 24 25 21 22 23 23 21 21 20 21 13
24 27 30 31 32 32 31 31 31 30 30 31 30 31 30 29 28 30 28 26 25 32 29 31 27 27 28 29 28 28 27 30 25 24 23 22 19 18 22 21 20 15 5
23 26 28 30 32 34 34 34 31 30 31 29 31 30 31 31 30 30 29 24 31 32 17 26 26 26 24 28 29 30 30 30 23 27 23 23 20 19 24 22 22 26 27
22 25 28 30 32 33 34 36 37 38 32 31 31 32 32 31 32 31 30 27 25 26 24 25 28 28 27 27 27 29 29 27 26 26 23 24 23 22 25 25 28 30 30
22 24 26 28 29 30 32 33 34 36 34 30 31 32 32 30 30 31 31 30 30 27 28 25 25 31 29 29 27 27 19 27 28 24 25 27 24 25 24 25 32 33 33
22 25 26 27 28 29 30 31 32 33 32 32 32 33 33 32 30 29 31 30 31 27 30 25 26 35 31 29 32 26 12 16 18 24 25 27 25 24 28 38 39 36 41
22 24 25 25 27 29 29 30 32 33 35 36 35 34 35 34 30 29 29 31 28 30 30 28 26 27 38 36 31 35 32 15 11 13 22 26 27 30 36 39 49 48 48
22 24 27 28 27 27 28 28 30 31 32 34 35 35 33 33 32 29 28 30 31 29 30 30 28 28 37 37 36 36 38 31 21 15 15 22 27 30 37 43 57 56 55
22 23 25 26 27 27 28 28 29 30 32 34 34 36 35 34 35 31 30 29 31 30 30 31 31 29 27 35 40 38 40 40 32 25 21 25 30 30 35 42 52 60 55
Wind_Direction
19 24 15 21 322 315 315 316 314 259 249 252 263 271 281 295 310 315 316 324 338 354 318 296 294 286 282 256 238 210 213 178 135 107 80 126 131 135 133 126 130 142 139
6 25 29 37 354 343 326 310 308 307 285 265 266 274 280 290 297 301 306 314 323 324 313 283 284 281 286 284 233 224 222 202 160 132 96 138 149 149 144 143 143 147 150
16 29 44 51 9 336 325 330 316 308 296 284 279 276 280 288 294 297 302 307 313 312 297 273 269 266 276 281 269 221 218 216 202 160 94 96 179 169 162 152 141 148 152
19 24 31 57 8 318 264 280 292 308 292 286 282 281 276 282 289 292 294 297 299 298 289 260 269 264 263 263 266 245 226 216 219 209 141 148 245 190 177 158 157 153 141
20 24 23 47 49 267 267 261 254 269 277 292 293 290 290 285 285 288 289 288 293 289 277 277 264 264 262 252 253 254 240 223 221 216 143 229 208 225 190 177 167 158 150
17 21 23 46 1 274 281 275 265 260 262 269 276 286 286 292 296 295 292 289 284 281 283 282 276 273 265 261 248 243 236 238 230 205 217 243 203 233 204 185 174 167 168
10 14 16 19 18 320 293 283 273 276 274 272 276 266 278 288 289 293 298 294 287 281 276 280 276 277 272 267 257 246 240 239 239 229 240 242 238 222 213 194 185 183 182
4 6 6 4 355 326 328 294 291 281 281 276 277 270 266 275 281 283 294 289 283 275 275 272 272 271 273 272 264 254 249 248 246 215 240 242 244 228 214 205 195 194 191
6 4 1 0 346 333 308 302 290 281 273 288 280 271 263 266 272 275 283 289 287 279 273 274 273 272 271 268 261 257 255 258 249 245 250 246 242 239 217 210 206 199 201
7 9 4 359 352 334 316 301 297 306 289 282 281 277 271 267 276 273 276 280 281 281 277 273 274 272 270 266 259 252 251 251 252 219 248 234 236 240 221 215 213 203 201
5 5 2 360 357 353 339 314 307 282 293 302 283 283 276 270 277 276 268 275 283 282 279 277 276 275 272 267 262 255 252 250 259 248 249 250 238 238 224 219 216 209 205
3 2 359 354 351 350 347 335 320 302 296 289 293 288 277 270 266 267 276 281 283 277 276 275 274 275 274 270 270 253 249 247 245 243 242 243 246 233 225 225 222 218 213
2 358 357 355 352 346 343 341 334 326 310 297 282 280 271 263 262 273 283 294 289 284 275 274 277 276 278 263 246 248 247 241 247 240 240 249 250 236 231 231 226 222 218
360 357 355 353 350 348 344 340 336 330 324 314 303 288 272 263 262 271 276 275 284 284 274 270 266 255 258 262 255 255 255 258 250 249 255 247 248 241 239 235 235 225 223
358 355 353 352 349 346 342 338 335 332 330 320 308 299 290 273 272 267 264 269 283 281 280 267 263 258 253 259 267 263 256 253 261 256 257 247 242 244 242 242 240 239 228
355 352 351 349 348 347 343 339 334 330 327 323 313 305 293 295 284 263 263 256 271 282 286 268 263 264 257 254 256 265 262 255 256 261 258 254 244 247 244 248 250 250 234
355 353 351 350 347 345 343 340 337 332 326 323 319 306 299 290 292 275 263 259 257 278 283 274 264 263 264 255 251 251 254 257 261 262 259 256 245 245 247 251 256 261 258
359 358 355 352 350 349 347 344 339 333 330 325 322 317 304 293 295 283 266 259 256 264 272 270 269 254 258 253 254 254 259 260 257 261 261 256 248 241 243 249 251 275 258
358 355 353 351 349 346 344 344 343 340 331 326 323 320 315 306 294 292 273 256 257 257 269 264 262 272 249 255 257 257 256 258 260 258 259 247 244 240 239 237 232 188 158
353 351 348 345 343 342 340 339 339 340 337 332 322 319 318 314 307 291 285 270 256 247 261 246 264 261 253 255 254 254 259 258 253 262 251 242 241 233 243 232 223 217 228
348 347 345 343 343 340 338 336 334 335 337 333 329 320 318 316 312 305 291 280 262 249 239 252 257 259 254 252 251 251 250 249 263 259 250 240 241 235 227 226 227 228 224
348 348 345 344 341 341 338 336 334 332 331 332 325 324 318 314 315 311 304 286 277 266 241 238 254 251 254 247 243 235 247 257 255 241 254 243 244 233 228 234 230 220 210
345 345 346 344 341 339 337 333 330 328 324 326 327 325 326 320 316 312 307 300 284 273 262 240 237 250 250 245 235 232 221 235 243 242 246 239 239 239 218 215 215 204 196
341 342 342 343 340 338 337 335 333 331 328 328 329 327 324 324 319 314 310 302 292 281 270 249 248 243 249 241 239 226 241 239 208 212 229 229 230 235 217 208 201 192 183
336 338 338 338 338 336 335 335 332 329 326 324 326 326 324 324 322 317 309 307 298 288 277 263 240 236 245 246 239 238 227 243 218 234 208 219 224 217 211 198 186 188 179
331 331 333 333 333 332 332 333 332 330 327 325 326 326 327 325 324 321 313 307 304 297 284 272 250 234 225 249 246 241 237 228 231 228 226 219 213 193 194 175 173 182 175